TimeEST,TemperatureF,Dew PointF,Humidity,Sea Level PressureIn,VisibilityMPH,Wind Direction,Wind SpeedMPH,Gust SpeedMPH,PrecipitationIn,Events,Conditions,WindDirDegrees,DateUTC
12:15 AM,33.3,30.4,89,30.00,5.0,Calm,Calm,-,N/A,,Clear,0,2012-11-08 05:15:00
12:35 AM,32.4,29.5,89,30.00,7.0,Calm,Calm,-,N/A,,Clear,0,2012-11-08 05:35:00
12:55 AM,31.8,28.9,89,30.00,4.0,Calm,Calm,-,N/A,,Clear,0,2012-11-08 05:55:00
1:15 AM,31.8,28.8,88,30.00,7.0,Calm,Calm,-,N/A,,Clear,0,2012-11-08 06:15:00
1:35 AM,32.0,29.3,90,30.00,5.0,Calm,Calm,-,N/A,,Clear,0,2012-11-08 06:35:00
1:55 AM,31.5,28.8,90,30.00,5.0,Calm,Calm,-,N/A,,Clear,0,2012-11-08 06:55:00
2:15 AM,32.0,29.5,90,30.00,5.0,Calm,Calm,-,N/A,,Clear,0,2012-11-08 07:15:00
2:35 AM,31.8,29.3,90,30.01,5.0,Calm,Calm,-,N/A,,Clear,0,2012-11-08 07:35:00
2:55 AM,30.7,28.0,90,30.00,5.0,Calm,Calm,-,N/A,,Clear,0,2012-11-08 07:55:00
3:15 AM,30.6,28.0,90,30.01,5.0,Calm,Calm,-,N/A,,Clear,0,2012-11-08 08:15:00
3:35 AM,30.7,28.0,90,30.01,5.0,Calm,Calm,-,N/A,,Clear,0,2012-11-08 08:35:00
3:55 AM,30.7,28.0,90,30.01,5.0,Calm,Calm,-,N/A,,Clear,0,2012-11-08 08:55:00
4:15 AM,30.0,27.5,90,30.01,5.0,Calm,Calm,-,N/A,,Clear,0,2012-11-08 09:15:00
4:35 AM,29.7,27.3,91,30.02,4.0,Calm,Calm,-,N/A,,Clear,0,2012-11-08 09:35:00
4:55 AM,27.9,25.5,91,30.02,4.0,Calm,Calm,-,N/A,,Clear,0,2012-11-08 09:55:00
5:15 AM,28.4,26.4,92,30.02,4.0,Calm,Calm,-,N/A,,Clear,0,2012-11-08 10:15:00
5:35 AM,27.1,25.2,92,30.02,4.0,Calm,Calm,-,N/A,,Clear,0,2012-11-08 10:35:00
5:55 AM,26.6,24.6,92,30.02,5.0,Calm,Calm,-,N/A,,Clear,0,2012-11-08 10:55:00
6:15 AM,27.1,25.0,92,30.03,4.0,Calm,Calm,-,N/A,,Clear,0,2012-11-08 11:15:00
6:35 AM,26.2,24.1,92,30.03,5.0,Calm,Calm,-,N/A,,Clear,0,2012-11-08 11:35:00
6:55 AM,26.8,24.6,92,30.05,5.0,Calm,Calm,-,N/A,,Clear,0,2012-11-08 11:55:00
7:15 AM,27.1,25.0,92,30.05,4.0,Calm,Calm,-,N/A,,Clear,0,2012-11-08 12:15:00
7:55 AM,28.8,26.6,92,30.07,2.5,Calm,Calm,-,N/A,,Clear,0,2012-11-08 12:55:00
8:15 AM,29.5,27.1,91,30.08,4.0,Calm,Calm,-,N/A,,Clear,0,2012-11-08 13:15:00
8:35 AM,29.7,27.1,90,30.09,4.0,Calm,Calm,-,N/A,,Clear,0,2012-11-08 13:35:00
8:55 AM,31.1,28.4,90,30.09,3.0,Calm,Calm,-,N/A,,Clear,0,2012-11-08 13:55:00
9:15 AM,32.5,30.2,91,30.09,4.0,Calm,Calm,-,N/A,,Clear,0,2012-11-08 14:15:00
9:35 AM,36.9,31.3,80,30.09,7.0,Calm,Calm,-,N/A,,Clear,0,2012-11-08 14:35:00
9:55 AM,40.3,31.6,71,30.09,7.0,Calm,Calm,-,N/A,,Clear,0,2012-11-08 14:55:00
10:15 AM,44.8,25.9,48,30.09,5.0,Calm,Calm,-,N/A,,Haze,0,2012-11-08 15:15:00
10:35 AM,47.5,17.1,30,30.09,10.0,Calm,Calm,-,N/A,,Clear,0,2012-11-08 15:35:00
10:55 AM,49.6,14.0,24,30.09,10.0,Calm,Calm,-,N/A,,Clear,0,2012-11-08 15:55:00
11:15 AM,50.4,14.5,24,30.08,10.0,NW,8.1,-,N/A,,Clear,310,2012-11-08 16:15:00
11:35 AM,50.2,13.8,23,30.09,10.0,NNW,6.9,-,N/A,,Clear,330,2012-11-08 16:35:00
11:55 AM,50.0,13.5,23,30.08,10.0,Calm,Calm,-,N/A,,Clear,0,2012-11-08 16:55:00
12:15 PM,50.5,15.1,24,30.07,10.0,West,12.7,-,N/A,,Clear,280,2012-11-08 17:15:00
12:35 PM,50.7,16.2,25,30.07,10.0,WNW,12.7,18.4,N/A,,Clear,290,2012-11-08 17:35:00
12:55 PM,50.9,15.4,24,30.06,10.0,NW,9.2,18.4,N/A,,Clear,310,2012-11-08 17:55:00
1:15 PM,51.6,16.9,25,30.05,10.0,WNW,10.4,-,N/A,,Clear,290,2012-11-08 18:15:00
1:35 PM,51.8,17.1,25,30.05,10.0,NNW,9.2,17.3,N/A,,Clear,330,2012-11-08 18:35:00
1:55 PM,52.2,16.5,24,30.05,10.0,North,12.7,16.1,N/A,,Clear,350,2012-11-08 18:55:00
2:15 PM,52.7,17.1,25,30.05,10.0,Calm,Calm,-,N/A,,Clear,0,2012-11-08 19:15:00
2:35 PM,52.7,16.9,24,30.05,10.0,North,10.4,-,N/A,,Clear,360,2012-11-08 19:35:00
2:55 PM,52.7,17.4,25,30.05,10.0,North,5.8,-,N/A,,Clear,360,2012-11-08 19:55:00
3:15 PM,52.7,18.9,26,30.05,10.0,NNE,8.1,-,N/A,,Clear,30,2012-11-08 20:15:00
3:35 PM,52.3,19.0,27,30.05,10.0,NNE,4.6,-,N/A,,Clear,20,2012-11-08 20:35:00
3:55 PM,52.0,19.6,28,30.05,10.0,Calm,Calm,-,N/A,,Clear,0,2012-11-08 20:55:00
4:15 PM,51.4,19.9,29,30.05,10.0,North,8.1,-,N/A,,Clear,360,2012-11-08 21:15:00
4:35 PM,50.5,21.0,31,30.05,10.0,North,3.5,-,N/A,,Clear,360,2012-11-08 21:35:00
4:55 PM,48.9,21.6,34,30.06,10.0,Calm,Calm,-,N/A,,Clear,0,2012-11-08 21:55:00
5:15 PM,46.9,23.0,39,30.07,10.0,North,4.6,-,N/A,,Clear,360,2012-11-08 22:15:00
5:35 PM,45.7,23.4,41,30.08,10.0,Calm,Calm,-,N/A,,Clear,0,2012-11-08 22:35:00
5:55 PM,43.5,24.6,47,30.09,10.0,Calm,Calm,-,N/A,,Clear,0,2012-11-08 22:55:00
6:15 PM,42.1,25.3,52,30.10,10.0,Calm,Calm,-,N/A,,Clear,0,2012-11-08 23:15:00
6:35 PM,43.9,27.1,52,30.10,10.0,WNW,10.4,-,N/A,,Clear,290,2012-11-08 23:35:00
6:55 PM,44.8,26.2,48,30.11,10.0,WNW,13.8,-,N/A,,Clear,290,2012-11-08 23:55:00
7:15 PM,44.6,25.9,48,30.11,10.0,West,17.3,23.0,N/A,,Clear,280,2012-11-09 00:15:00
7:35 PM,44.4,26.1,49,30.12,10.0,West,19.6,24.2,N/A,,Clear,280,2012-11-09 00:35:00
7:55 PM,44.6,26.1,48,30.12,10.0,WNW,13.8,-,N/A,,Clear,300,2012-11-09 00:55:00
8:15 PM,43.9,26.2,50,30.13,10.0,WNW,13.8,-,N/A,,Clear,300,2012-11-09 01:15:00
8:35 PM,43.0,26.6,52,30.13,10.0,WNW,12.7,-,N/A,,Clear,290,2012-11-09 01:35:00
8:55 PM,42.8,27.1,54,30.14,10.0,WNW,12.7,-,N/A,,Clear,290,2012-11-09 01:55:00
9:15 PM,42.1,27.0,55,30.15,10.0,Calm,Calm,-,N/A,,Clear,0,2012-11-09 02:15:00
9:35 PM,41.4,27.5,58,30.15,10.0,Calm,Calm,-,N/A,,Clear,0,2012-11-09 02:35:00
9:55 PM,40.3,27.7,61,30.16,10.0,Calm,Calm,-,N/A,,Clear,0,2012-11-09 02:55:00
10:15 PM,39.9,27.9,62,30.16,10.0,Calm,Calm,-,N/A,,Clear,0,2012-11-09 03:15:00
10:35 PM,36.0,27.5,71,30.16,10.0,Calm,Calm,-,N/A,,Clear,0,2012-11-09 03:35:00
10:55 PM,35.4,26.8,71,30.16,10.0,Calm,Calm,-,N/A,,Clear,0,2012-11-09 03:55:00
11:15 PM,34.2,27.1,75,30.16,10.0,Calm,Calm,-,N/A,,Clear,0,2012-11-09 04:15:00
11:35 PM,34.3,27.7,77,30.16,10.0,Calm,Calm,-,N/A,,Clear,0,2012-11-09 04:35:00
11:55 PM,33.4,27.5,79,30.16,10.0,Calm,Calm,-,N/A,,Clear,0,2012-11-09 04:55:00